Time,TemperatureF,DewpointF,PressureIn,WindDirection,WindDirectionDegrees,WindSpeedMPH,WindSpeedGustMPH,Humidity,HourlyPrecipIn,Conditions,Clouds,dailyrainin,SoftwareType,DateUTC
2013-01-10 00:03:00,40.0,25.0,30.00,NW,316,6.0,19.0,55,-99.99,,,-99.99,,2013-01-10 05:03:00,
2013-01-10 00:12:00,40.0,25.0,30.00,NW,316,6.0,19.0,55,-99.99,,,-99.99,,2013-01-10 05:12:00,
2013-01-10 00:22:00,40.0,25.0,30.00,NNE,17,4.0,18.0,55,-99.99,,,-99.99,,2013-01-10 05:22:00,
2013-01-10 00:33:00,40.0,25.0,30.00,WNW,284,7.0,17.0,55,-99.99,,,-99.99,,2013-01-10 05:33:00,
2013-01-10 00:43:00,40.0,25.0,30.00,WNW,284,7.0,17.0,55,-99.99,,,-99.99,,2013-01-10 05:43:00,
2013-01-10 00:52:00,40.0,26.0,30.00,WNW,291,6.0,18.0,57,-99.99,,,-99.99,,2013-01-10 05:52:00,
2013-01-10 01:02:00,40.0,26.0,30.01,WNW,299,4.0,14.0,58,-99.99,,,-99.99,,2013-01-10 06:02:00,
2013-01-10 01:12:00,40.0,26.0,30.01,WNW,299,4.0,14.0,58,-99.99,,,-99.99,,2013-01-10 06:12:00,
2013-01-10 01:22:00,39.0,26.0,30.00,NNW,329,5.0,17.0,59,-99.99,,,-99.99,,2013-01-10 06:22:00,
2013-01-10 01:32:00,41.0,27.0,30.01,West,264,10.0,22.0,57,-99.99,,,-99.99,,2013-01-10 06:32:00,
2013-01-10 01:42:00,41.0,27.0,30.01,West,264,10.0,22.0,57,-99.99,,,-99.99,,2013-01-10 06:42:00,
2013-01-10 01:52:00,40.0,28.0,30.00,West,263,6.0,22.0,62,-99.99,,,-99.99,,2013-01-10 06:52:00,
2013-01-10 02:02:00,39.0,28.0,30.03,NNW,333,3.0,21.0,65,-99.99,,,-99.99,,2013-01-10 07:02:00,
2013-01-10 02:12:00,39.0,28.0,30.03,NNW,333,3.0,21.0,65,-99.99,,,-99.99,,2013-01-10 07:12:00,
2013-01-10 02:22:00,38.0,28.0,30.03,NW,316,7.0,18.0,66,-99.99,,,-99.99,,2013-01-10 07:22:00,
2013-01-10 02:32:00,37.0,27.0,30.06,NW,313,4.0,14.0,68,-99.99,,,-99.99,,2013-01-10 07:32:00,
2013-01-10 02:42:00,37.0,27.0,30.06,NW,313,4.0,14.0,68,-99.99,,,-99.99,,2013-01-10 07:42:00,
2013-01-10 02:52:00,38.0,28.0,30.06,West,264,4.0,13.0,66,-99.99,,,-99.99,,2013-01-10 07:52:00,
2013-01-10 03:02:00,37.0,26.0,30.08,West,275,4.0,13.0,65,-99.99,,,-99.99,,2013-01-10 08:02:00,
2013-01-10 03:12:00,37.0,26.0,30.08,West,275,4.0,13.0,65,-99.99,,,-99.99,,2013-01-10 08:12:00,
2013-01-10 03:22:00,38.0,27.0,30.08,NW,316,6.0,20.0,64,-99.99,,,-99.99,,2013-01-10 08:22:00,
2013-01-10 03:32:00,38.0,26.0,30.07,NW,315,7.0,18.0,61,-99.99,,,-99.99,,2013-01-10 08:32:00,
2013-01-10 03:42:00,38.0,26.0,30.07,NW,315,7.0,18.0,61,-99.99,,,-99.99,,2013-01-10 08:42:00,
2013-01-10 03:52:00,38.0,25.0,30.07,SW,234,6.0,17.0,60,-99.99,,,-99.99,,2013-01-10 08:52:00,
2013-01-10 04:02:00,38.0,24.0,30.10,SW,229,7.0,16.0,57,-99.99,,,-99.99,,2013-01-10 09:02:00,
2013-01-10 04:12:00,38.0,24.0,30.10,SW,229,7.0,16.0,57,-99.99,,,-99.99,,2013-01-10 09:12:00,
2013-01-10 04:22:00,38.0,24.0,30.10,West,281,8.0,21.0,56,-99.99,,,-99.99,,2013-01-10 09:22:00,
2013-01-10 04:32:00,38.0,24.0,30.11,WNW,296,5.0,20.0,56,-99.99,,,-99.99,,2013-01-10 09:32:00,
2013-01-10 04:42:00,38.0,24.0,30.11,WNW,296,5.0,20.0,56,-99.99,,,-99.99,,2013-01-10 09:42:00,
2013-01-10 04:52:00,37.0,24.0,30.11,West,267,5.0,18.0,58,-99.99,,,-99.99,,2013-01-10 09:52:00,
2013-01-10 05:03:00,37.0,22.0,30.13,NNW,346,8.0,20.0,55,-99.99,,,-99.99,,2013-01-10 10:03:00,
2013-01-10 05:12:00,37.0,22.0,30.13,NNW,346,8.0,20.0,55,-99.99,,,-99.99,,2013-01-10 10:12:00,
2013-01-10 05:22:00,37.0,23.0,30.13,West,270,2.0,12.0,56,-99.99,,,-99.99,,2013-01-10 10:22:00,
2013-01-10 05:32:00,37.0,23.0,30.14,North,357,3.0,16.0,57,-99.99,,,-99.99,,2013-01-10 10:32:00,
2013-01-10 05:42:00,37.0,23.0,30.14,North,357,3.0,16.0,57,-99.99,,,-99.99,,2013-01-10 10:42:00,
2013-01-10 05:52:00,37.0,23.0,30.14,North,357,3.0,16.0,57,-99.99,,,-99.99,,2013-01-10 10:52:00,
2013-01-10 06:03:00,37.0,23.0,30.14,North,357,3.0,16.0,57,-99.99,,,-99.99,,2013-01-10 11:03:00,
2013-01-10 06:12:00,37.0,23.0,30.14,North,357,3.0,16.0,57,-99.99,,,-99.99,,2013-01-10 11:12:00,
2013-01-10 06:53:00,36.0,22.0,30.19,NNE,21,2.0,10.0,56,-99.99,,,-99.99,,2013-01-10 11:53:00,
2013-01-10 07:03:00,35.0,22.0,30.22,NW,323,3.0,8.0,58,-99.99,,,-99.99,,2013-01-10 12:03:00,
2013-01-10 07:12:00,35.0,22.0,30.22,NW,323,3.0,8.0,58,-99.99,,,-99.99,,2013-01-10 12:12:00,
2013-01-10 07:22:00,35.0,22.0,30.22,North,359,0.0,13.0,58,-99.99,,,-99.99,,2013-01-10 12:22:00,
2013-01-10 07:33:00,34.0,21.0,30.25,WNW,289,1.0,10.0,58,-99.99,,,-99.99,,2013-01-10 12:33:00,
2013-01-10 07:43:00,34.0,21.0,30.25,WNW,289,1.0,10.0,58,-99.99,,,-99.99,,2013-01-10 12:43:00,
2013-01-10 07:53:00,34.0,21.0,30.25,SE,137,1.0,2.0,59,-99.99,,,-99.99,,2013-01-10 12:53:00,
2013-01-10 08:02:00,34.0,22.0,30.27,NNE,32,0.0,6.0,60,-99.99,,,-99.99,,2013-01-10 13:02:00,
2013-01-10 08:12:00,34.0,22.0,30.27,NNE,32,0.0,6.0,60,-99.99,,,-99.99,,2013-01-10 13:12:00,
2013-01-10 08:22:00,34.0,22.0,30.27,East,80,0.0,3.0,61,-99.99,,,-99.99,,2013-01-10 13:22:00,
2013-01-10 08:32:00,34.0,22.0,30.28,WNW,296,3.0,12.0,60,-99.99,,,-99.99,,2013-01-10 13:32:00,
2013-01-10 08:42:00,34.0,22.0,30.28,WNW,296,3.0,12.0,60,-99.99,,,-99.99,,2013-01-10 13:42:00,
2013-01-10 08:52:00,34.0,22.0,30.28,NNW,333,2.0,6.0,60,-99.99,,,-99.99,,2013-01-10 13:52:00,
2013-01-10 09:02:00,35.0,22.0,30.29,NNW,328,1.0,6.0,59,-99.99,,,-99.99,,2013-01-10 14:02:00,
2013-01-10 09:12:00,35.0,22.0,30.29,NNW,328,1.0,6.0,59,-99.99,,,-99.99,,2013-01-10 14:12:00,
2013-01-10 09:22:00,36.0,21.0,30.30,West,274,3.0,11.0,55,-99.99,,,-99.99,,2013-01-10 14:22:00,
2013-01-10 09:33:00,37.0,22.0,30.31,NNW,340,5.0,10.0,54,-99.99,,,-99.99,,2013-01-10 14:33:00,
2013-01-10 09:43:00,37.0,22.0,30.31,NNW,340,5.0,10.0,54,-99.99,,,-99.99,,2013-01-10 14:43:00,
2013-01-10 09:53:00,38.0,23.0,30.31,NNE,17,2.0,11.0,54,-99.99,,,-99.99,,2013-01-10 14:53:00,
2013-01-10 10:03:00,39.0,22.0,30.31,NW,311,3.0,14.0,50,-99.99,,,-99.99,,2013-01-10 15:03:00,
2013-01-10 10:12:00,39.0,22.0,30.31,NW,311,3.0,14.0,50,-99.99,,,-99.99,,2013-01-10 15:12:00,
2013-01-10 10:23:00,40.0,22.0,30.31,NW,325,2.0,11.0,49,-99.99,,,-99.99,,2013-01-10 15:23:00,
2013-01-10 10:33:00,40.0,23.0,30.33,NW,315,2.0,17.0,50,-99.99,,,-99.99,,2013-01-10 15:33:00,
2013-01-10 10:43:00,40.0,23.0,30.33,NW,315,2.0,17.0,50,-99.99,,,-99.99,,2013-01-10 15:43:00,
2013-01-10 10:53:00,40.0,22.0,30.33,NNW,332,8.0,17.0,49,-99.99,,,-99.99,,2013-01-10 15:53:00,
2013-01-10 11:03:00,41.0,24.0,30.32,West,271,4.0,11.0,50,-99.99,,,-99.99,,2013-01-10 16:03:00,
2013-01-10 11:13:00,41.0,24.0,30.32,West,271,4.0,11.0,50,-99.99,,,-99.99,,2013-01-10 16:13:00,
2013-01-10 11:23:00,41.0,22.0,30.32,WSW,241,6.0,14.0,47,-99.99,,,-99.99,,2013-01-10 16:23:00,
2013-01-10 11:33:00,42.0,22.0,30.31,NW,320,3.0,12.0,45,-99.99,,,-99.99,,2013-01-10 16:33:00,
2013-01-10 11:43:00,42.0,22.0,30.31,NW,320,3.0,12.0,45,-99.99,,,-99.99,,2013-01-10 16:43:00,
2013-01-10 11:53:00,42.0,23.0,30.31,NW,312,3.0,14.0,46,-99.99,,,-99.99,,2013-01-10 16:53:00,
2013-01-10 12:03:00,42.0,22.0,30.29,West,271,2.0,19.0,44,-99.99,,,-99.99,,2013-01-10 17:03:00,
2013-01-10 12:12:00,42.0,22.0,30.29,West,271,2.0,19.0,44,-99.99,,,-99.99,,2013-01-10 17:12:00,
2013-01-10 12:22:00,43.0,22.0,30.29,NW,313,4.0,13.0,43,-99.99,,,-99.99,,2013-01-10 17:22:00,
2013-01-10 12:33:00,43.0,22.0,30.29,NNE,31,4.0,10.0,42,-99.99,,,-99.99,,2013-01-10 17:33:00,
2013-01-10 12:42:00,43.0,22.0,30.29,NNE,31,4.0,10.0,42,-99.99,,,-99.99,,2013-01-10 17:42:00,
2013-01-10 12:53:00,43.0,22.0,30.29,North,350,7.0,14.0,42,-99.99,,,-99.99,,2013-01-10 17:53:00,
2013-01-10 13:03:00,43.0,23.0,30.30,NE,41,4.0,13.0,44,-99.99,,,-99.99,,2013-01-10 18:03:00,
2013-01-10 13:12:00,43.0,22.0,30.30,WNW,282,7.0,13.0,42,-99.99,,,-99.99,,2013-01-10 18:12:00,
2013-01-10 13:23:00,43.0,22.0,30.30,WNW,282,7.0,13.0,42,-99.99,,,-99.99,,2013-01-10 18:23:00,
2013-01-10 13:33:00,42.0,21.0,30.30,West,271,8.0,18.0,42,-99.99,,,-99.99,,2013-01-10 18:33:00,
2013-01-10 13:43:00,42.0,21.0,30.30,NNW,328,3.0,18.0,43,-99.99,,,-99.99,,2013-01-10 18:43:00,
2013-01-10 13:53:00,42.0,21.0,30.30,NNW,328,3.0,18.0,43,-99.99,,,-99.99,,2013-01-10 18:53:00,
2013-01-10 14:03:00,43.0,22.0,30.33,North,360,2.0,14.0,43,-99.99,,,-99.99,,2013-01-10 19:03:00,
2013-01-10 14:13:00,43.0,22.0,30.33,North,6,2.0,13.0,42,-99.99,,,-99.99,,2013-01-10 19:13:00,
2013-01-10 14:23:00,43.0,22.0,30.33,North,6,2.0,13.0,42,-99.99,,,-99.99,,2013-01-10 19:23:00,
2013-01-10 14:33:00,43.0,21.0,30.33,NW,323,6.0,13.0,41,-99.99,,,-99.99,,2013-01-10 19:33:00,
2013-01-10 14:43:00,43.0,21.0,30.33,NW,323,6.0,13.0,41,-99.99,,,-99.99,,2013-01-10 19:43:00,
2013-01-10 14:53:00,42.0,21.0,30.35,NW,320,6.0,16.0,43,-99.99,,,-99.99,,2013-01-10 19:53:00,
2013-01-10 15:03:00,42.0,23.0,30.35,NW,312,2.0,11.0,46,-99.99,,,-99.99,,2013-01-10 20:03:00,
2013-01-10 15:13:00,41.0,22.0,30.35,North,360,2.0,11.0,46,-99.99,,,-99.99,,2013-01-10 20:13:00,
2013-01-10 15:24:00,41.0,22.0,30.35,North,360,2.0,11.0,46,-99.99,,,-99.99,,2013-01-10 20:24:00,
2013-01-10 15:33:00,41.0,22.0,30.36,WSW,246,2.0,10.0,47,-99.99,,,-99.99,,2013-01-10 20:33:00,
2013-01-10 15:43:00,41.0,22.0,30.36,WSW,246,2.0,10.0,47,-99.99,,,-99.99,,2013-01-10 20:43:00,
2013-01-10 15:53:00,40.0,21.0,30.36,NW,308,2.0,11.0,46,-99.99,,,-99.99,,2013-01-10 20:53:00,
2013-01-10 16:04:00,39.0,23.0,30.37,NW,322,1.0,8.0,52,-99.99,,,-99.99,,2013-01-10 21:04:00,
2013-01-10 16:13:00,39.0,21.0,30.37,WNW,285,2.0,11.0,49,-99.99,,,-99.99,,2013-01-10 21:13:00,
2013-01-10 16:23:00,39.0,21.0,30.37,WNW,285,2.0,11.0,49,-99.99,,,-99.99,,2013-01-10 21:23:00,
2013-01-10 16:33:00,39.0,21.0,30.39,WNW,296,2.0,6.0,49,-99.99,,,-99.99,,2013-01-10 21:33:00,
2013-01-10 16:43:00,39.0,21.0,30.39,WNW,296,2.0,6.0,49,-99.99,,,-99.99,,2013-01-10 21:43:00,
2013-01-10 16:53:00,38.0,22.0,30.39,WNW,302,2.0,6.0,53,-99.99,,,-99.99,,2013-01-10 21:53:00,
2013-01-10 17:04:00,38.0,22.0,30.39,WNW,302,2.0,6.0,53,-99.99,,,-99.99,,2013-01-10 22:04:00,
2013-01-10 17:13:00,38.0,22.0,30.39,WNW,302,2.0,6.0,53,-99.99,,,-99.99,,2013-01-10 22:13:00,
2013-01-10 17:26:00,38.0,22.0,30.39,WNW,302,2.0,6.0,53,-99.99,,,-99.99,,2013-01-10 22:26:00,
2013-01-10 18:03:00,36.0,22.0,30.41,NW,313,0.0,5.0,57,-99.99,,,-99.99,,2013-01-10 23:03:00,
2013-01-10 18:13:00,36.0,22.0,30.41,NW,313,0.0,5.0,57,-99.99,,,-99.99,,2013-01-10 23:13:00,
2013-01-10 18:23:00,36.0,22.0,30.41,NW,313,0.0,5.0,57,-99.99,,,-99.99,,2013-01-10 23:23:00,
2013-01-10 18:53:00,33.0,21.0,30.42,North,360,0.0,1.0,62,-99.99,,,-99.99,,2013-01-10 23:53:00,
2013-01-10 19:03:00,32.0,23.0,30.42,NE,42,0.0,2.0,69,-99.99,,,-99.99,,2013-01-11 00:03:00,
2013-01-10 19:13:00,33.0,22.0,30.42,NW,326,0.0,6.0,64,-99.99,,,-99.99,,2013-01-11 00:13:00,
2013-01-10 19:23:00,33.0,22.0,30.42,NW,326,0.0,6.0,64,-99.99,,,-99.99,,2013-01-11 00:23:00,
2013-01-10 19:33:00,32.0,23.0,30.43,West,270,1.0,7.0,69,-99.99,,,-99.99,,2013-01-11 00:33:00,
2013-01-10 19:43:00,32.0,23.0,30.43,West,270,1.0,7.0,69,-99.99,,,-99.99,,2013-01-11 00:43:00,
2013-01-10 19:52:00,32.0,22.0,30.43,WNW,296,0.0,6.0,65,-99.99,,,-99.99,,2013-01-11 00:52:00,
2013-01-10 20:03:00,32.0,22.0,30.45,WNW,299,0.0,5.0,65,-99.99,,,-99.99,,2013-01-11 01:03:00,
2013-01-10 20:13:00,32.0,21.0,30.45,North,359,0.0,3.0,64,-99.99,,,-99.99,,2013-01-11 01:13:00,
2013-01-10 20:23:00,32.0,21.0,30.45,North,359,0.0,3.0,64,-99.99,,,-99.99,,2013-01-11 01:23:00,
2013-01-10 20:34:00,31.0,21.0,30.46,North,359,0.0,1.0,67,-99.99,,,-99.99,,2013-01-11 01:34:00,
2013-01-10 20:43:00,31.0,21.0,30.46,North,359,0.0,1.0,67,-99.99,,,-99.99,,2013-01-11 01:43:00,
2013-01-10 20:53:00,31.0,22.0,30.46,North,359,0.0,2.0,68,-99.99,,,-99.99,,2013-01-11 01:53:00,
2013-01-10 21:03:00,30.0,21.0,30.47,North,360,0.0,2.0,70,-99.99,,,-99.99,,2013-01-11 02:03:00,
2013-01-10 21:13:00,30.0,21.0,30.47,North,360,0.0,2.0,70,-99.99,,,-99.99,,2013-01-11 02:13:00,
2013-01-10 21:23:00,30.0,22.0,30.47,NNE,17,0.0,2.0,71,-99.99,,,-99.99,,2013-01-11 02:23:00,
2013-01-10 21:33:00,30.0,22.0,30.48,NNE,18,1.0,3.0,72,-99.99,,,-99.99,,2013-01-11 02:33:00,
2013-01-10 21:43:00,30.0,22.0,30.48,NNE,18,1.0,3.0,72,-99.99,,,-99.99,,2013-01-11 02:43:00,
2013-01-10 21:53:00,29.0,22.0,30.48,NNE,20,0.0,2.0,75,-99.99,,,-99.99,,2013-01-11 02:53:00,
2013-01-10 22:03:00,29.0,22.0,30.48,NW,305,0.0,8.0,76,-99.99,,,-99.99,,2013-01-11 03:03:00,
2013-01-10 22:12:00,30.0,22.0,30.48,WNW,295,1.0,7.0,72,-99.99,,,-99.99,,2013-01-11 03:12:00,
2013-01-10 22:23:00,30.0,22.0,30.48,WNW,295,1.0,7.0,72,-99.99,,,-99.99,,2013-01-11 03:23:00,
2013-01-10 22:33:00,31.0,22.0,30.49,WNW,291,0.0,2.0,68,-99.99,,,-99.99,,2013-01-11 03:33:00,
2013-01-10 22:43:00,31.0,22.0,30.49,WNW,291,0.0,2.0,68,-99.99,,,-99.99,,2013-01-11 03:43:00,
2013-01-10 22:53:00,30.0,23.0,30.48,WNW,291,0.0,1.0,74,-99.99,,,-99.99,,2013-01-11 03:53:00,
2013-01-10 23:02:00,30.0,22.0,30.48,NE,41,0.0,1.0,72,-99.99,,,-99.99,,2013-01-11 04:02:00,
2013-01-10 23:12:00,30.0,22.0,30.48,NE,41,0.0,1.0,72,-99.99,,,-99.99,,2013-01-11 04:12:00,
2013-01-10 23:22:00,30.0,21.0,30.48,NE,41,0.0,1.0,70,-99.99,,,-99.99,,2013-01-11 04:22:00,
2013-01-10 23:33:00,30.0,23.0,30.48,NE,44,1.0,3.0,74,-99.99,,,-99.99,,2013-01-11 04:33:00,
2013-01-10 23:43:00,30.0,23.0,30.48,NE,44,1.0,3.0,74,-99.99,,,-99.99,,2013-01-11 04:43:00,
2013-01-10 23:52:00,29.0,22.0,30.48,NE,44,0.0,0.0,74,-99.99,,,-99.99,,2013-01-11 04:52:00,